DW7355 Weather Reports


time (UTC)temp
C
wind
direction
speed
KPH
gust
KPH
rain 1hr
cm
rain 24hr
cm
rain mn
cm
humidity
%
barometer
mb
20260507074523 12 264 0.0 9.7 0.03 0.25 0.03 87 1006.4
20260507073008 12 288 0.0 9.7 0.00 0.23 0.00 85 1006.5
20260507071505 12 302 1.6 6.4 0.00 0.23 0.00 85 1005.8
20260507070010 12 245 0.0 4.8 0.00 0.23 0.00 86 1005.9
20260507064504 13 312 3.2 6.4 0.00 0.23 0.00 85 1006.1
20260507063100 13 287 3.2 6.4 0.00 0.23 0.00 85 1006.1
20260507061559 13 301 0.0 4.8 0.00 0.23 0.00 86 1005.9
20260507060106 13 282 3.2 9.7 0.00 0.23 0.00 86 1006.1
20260507054558 14 276 0.0 11.3 0.00 0.23 0.00 86 1006.2
20260507053055 14 329 1.6 11.3 0.00 0.23 0.00 87 1006.3
20260507051552 14 272 1.6 6.4 0.00 0.23 0.00 87 1006.0
20260507050049 15 250 4.8 12.9 0.00 0.23 0.00 88 1006.1
20260507044547 15 256 0.0 6.4 0.00 0.23 0.00 90 1005.9
20260507043043 15 305 1.6 11.3 0.00 0.23 0.00 92 1005.8
20260507041539 15 266 0.0 6.4 0.00 0.23 0.00 93 1005.9
20260507040035 15 285 0.0 4.8 0.00 0.23 0.00 93 1006.2
20260507034550 15 253 3.2 8.0 0.00 0.23 0.23 93 1006.0
20260507033038 15 295 0.0 8.0 0.00 0.23 0.23 93 1005.9
20260507031532 15 221 3.2 6.4 0.00 0.23 0.23 92 1005.7
20260507030035 15 263 3.2 8.0 0.00 0.23 0.23 92 1005.5
20260507024548 15 287 1.6 12.9 0.00 0.23 0.23 93 1005.5
20260507023030 15 239 0.0 8.0 0.00 0.23 0.23 93 1005.7
20260507021529 15 197 1.6 8.0 0.00 0.23 0.23 93 1005.6
20260507020029 15 228 1.6 8.0 0.00 0.23 0.23 93 1005.6
20260507014538 15 226 1.6 9.7 0.00 0.23 0.23 93 1005.6
20260507013028 14 155 1.6 17.7 0.00 0.23 0.23 93 1005.8
20260507011538 14 124 3.2 11.3 0.00 0.23 0.23 93 1006.0
20260507010027 14 269 3.2 9.7 0.00 0.23 0.23 93 1006.1
20260507004526 14 288 1.6 11.3 0.00 0.23 0.23 93 1006.1
20260507003025 14 211 3.2 16.1 0.03 0.23 0.23 93 1006.0
20260507001527 14 214 1.6 17.7 0.05 0.23 0.23 93 1005.9
20260507000024 14 242 1.6 12.9 0.08 0.23 0.23 93 1005.6
20260506234522 14 214 3.2 12.9 0.05 0.20 0.20 93 1005.8
20260506233021 15 225 1.6 12.9 0.05 0.20 0.20 93 1005.7
20260506231521 15 256 4.8 16.1 0.03 0.18 0.18 92 1005.7
20260506230017 15 179 1.6 12.9 0.00 0.15 0.15 92 1005.7
20260506224516 15 255 1.6 9.7 0.03 0.15 0.15 92 1005.7
20260506223012 15 170 3.2 11.3 0.05 0.15 0.15 92 1005.9
20260506221511 15 132 1.6 17.7 0.05 0.15 0.15 92 1006.1
20260506220010 16 160 1.6 9.7 0.05 0.15 0.15 91 1006.1
20260506214515 16 189 6.4 17.7 0.05 0.13 0.13 89 1006.4
20260506213009 16 255 6.4 22.5 0.03 0.10 0.10 87 1006.5
20260506211505 16 232 4.8 14.5 0.03 0.10 0.10 86 1006.5
20260506210004 16 307 3.2 19.3 0.03 0.10 0.10 86 1006.5
20260506204504 16 194 4.8 22.5 0.03 0.08 0.08 85 1006.7
20260506203008 16 214 3.2 19.3 0.05 0.08 0.08 83 1006.7
20260506201502 17 149 6.4 20.9 0.08 0.08 0.08 82 1006.6
20260506200001 17 257 3.2 9.7 0.08 0.08 0.08 81 1006.4
20260506194559 17 219 3.2 12.9 0.05 0.05 0.05 80 1006.7
20260506193058 18 130 1.6 12.9 0.03 0.03 0.03 76 1006.9
20260506191559 18 79 3.2 19.3 0.00 0.00 0.00 73 1006.8
20260506190059 20 308 4.8 17.7 0.00 0.00 0.00 67 1006.7
20260506184556 20 266 4.8 14.5 0.00 0.00 0.00 63 1006.7
20260506183057 21 283 6.4 27.4 0.00 0.00 0.00 61 1006.8
20260506181555 21 259 6.4 22.5 0.00 0.00 0.00 59 1007.0
20260506180052 22 319 6.4 19.3 0.00 0.00 0.00 58 1007.0
20260506174557 22 242 6.4 20.9 0.00 0.00 0.00 58 1007.3
20260506173102 22 270 4.8 14.5 0.00 0.00 0.00 59 1007.4
20260506171550 22 136 8.0 19.3 0.00 0.00 0.00 60 1007.3
20260506170048 21 231 8.0 20.9 0.00 0.00 0.00 60 1007.5
20260506164545 22 300 6.4 22.5 0.00 0.00 0.00 59 1007.8
20260506163049 22 197 6.4 16.1 0.00 0.00 0.00 60 1007.8
20260506161541 22 179 4.8 19.3 0.00 0.00 0.00 59 1008.1
20260506160040 22 215 6.4 25.7 0.00 0.00 0.00 59 1008.3
20260506154539 22 257 4.8 25.7 0.00 0.00 0.00 59 1008.6
20260506153042 22 225 4.8 16.1 0.00 0.00 0.00 58 1008.8
20260506151534 22 287 6.4 22.5 0.00 0.00 0.00 58 1008.9
20260506150038 22 166 8.0 25.7 0.00 0.00 0.00 58 1009.1
20260506144549 21 266 4.8 17.7 0.00 0.00 0.00 61 1009.0
20260506143027 21 165 6.4 12.9 0.00 0.00 0.00 62 1008.9
20260506141525 21 186 3.2 11.3 0.00 0.00 0.00 64 1008.9
20260506140033 20 196 6.4 19.3 0.00 0.00 0.00 67 1009.0
20260506134516 19 231 4.8 16.1 0.00 0.00 0.00 69 1009.0
20260506133016 18 220 4.8 16.1 0.00 0.00 0.00 71 1009.7
20260506131512 18 220 3.2 22.5 0.00 0.00 0.00 72 1009.6
20260506130010 18 193 3.2 12.9 0.00 0.00 0.00 72 1009.5
20260506124506 18 53 8.0 16.1 0.00 0.00 0.00 74 1009.6
20260506123004 17 253 4.8 14.5 0.00 0.00 0.00 77 1009.9
20260506121503 17 245 1.6 11.3 0.00 0.00 0.00 78 1009.6
20260506120003 16 215 3.2 12.9 0.00 0.00 0.00 80 1010.0
20260506114502 16 290 3.2 11.3 0.00 0.00 0.00 80 1009.9
20260506113002 16 114 3.2 16.1 0.00 0.00 0.00 80 1010.3
20260506111600 16 252 8.0 12.9 0.00 0.00 0.00 80 1010.2
20260506104606 15 236 3.2 11.3 0.00 0.00 0.00 82 1010.0
20260506103106 15 179 1.6 14.5 0.00 0.00 0.00 82 1010.2
20260506101556 15 179 3.2 11.3 0.00 0.00 0.00 82 1010.0
20260506100107 15 221 3.2 11.3 0.00 0.00 0.00 82 1010.0
20260506094602 15 198 1.6 11.3 0.00 0.00 0.00 82 1009.8
20260506093053 15 195 3.2 9.7 0.00 0.00 0.00 82 1010.0
20260506091551 15 248 1.6 12.9 0.00 0.00 0.00 81 1009.8
20260506090049 16 222 1.6 14.5 0.00 0.00 0.00 80 1009.8
20260506084552 16 180 3.2 16.1 0.00 0.00 0.00 79 1009.8